Location: Recife
(8.0585°S, 34.8848°W)
Time: 05:13:39
(UTC-03:00)

Courier 1B - Pass Details

Date: 16 April 2026
Orbit: 962 x 1209 km, 28.3° (Epoch: 14 May)

Event Time Altitude Azimuth Distance (km) Brightness Sun altitude
Rises 10:12:50 0° 232° (SW) 4,109 10.5 65.3°
Reaches altitude 10° 10:17:12 10° 211° (SSW) 3,126 10.0 66.0°
Maximum altitude 10:21:33 16° 177° (S) 2,689 9.8 66.7°
Drops below altitude 10° 10:25:49 10° 142° (SE) 3,054 10.2 67.4°
Sets 10:30:00 0° 121° (ESE) 3,964 10.7 67.9°
